This is the latest recevied weather packets stored in our database for station/object LRTM. If no packets are shown the sender has not sent any weather packets the latest 10 day(s).
| Time | Temp. | Humidity | Pressure | Rain* | Wind** | Luminosity | Snow |
|---|---|---|---|---|---|---|---|
| 1777888106 | 22.22° C | 33% | 1018 hPa | - | - | - | - |
| 1777887206 | 22.22° C | 33% | 1018 hPa | - | - | - | - |
| 1777886306 | 21.11° C | 35% | 1018 hPa | - | - | - | - |
| 1777885406 | 21.11° C | 35% | 1018 hPa | - | - | - | - |
| 1777884535 | 18.89° C | 46% | 1018 hPa | - | - | - | - |
| 1777883607 | 18.89° C | 46% | 1018 hPa | - | - | - | - |
| 1777882706 | 16.11° C | 52% | 1019 hPa | - | - | - | - |
| 1777881806 | 16.11° C | 52% | 1019 hPa | - | - | - | - |
| 1777880907 | 13.89° C | 55% | 1019 hPa | - | - | - | - |
| 1777880006 | 13.89° C | 55% | 1019 hPa | - | - | - | - |
| 1777879107 | 12.78° C | 55% | 1019 hPa | - | - | - | - |
| 1777878207 | 12.78° C | 55% | 1019 hPa | - | - | - | - |
| 1777877306 | 11.11° C | 62% | 1019 hPa | - | - | - | - |
| 1777876407 | 11.11° C | 62% | 1019 hPa | - | - | - | - |
| 1777875507 | 8.89° C | 71% | 1019 hPa | - | - | - | - |
| 1777874607 | 8.89° C | 71% | 1019 hPa | - | - | - | - |
| 1777873707 | 7.22° C | 81% | 1019 hPa | - | - | - | - |
| 1777872808 | 7.22° C | 81% | 1019 hPa | - | - | - | - |
| 1777871907 | 6.11° C | 81% | 1019 hPa | - | - | - | - |
| 1777871016 | 6.11° C | 81% | 1019 hPa | - | - | - | - |
| 1777870107 | 3.89° C | 87% | 1019 hPa | - | - | - | - |
| 1777869206 | 3.89° C | 87% | 1019 hPa | - | - | - | - |
| 1777868306 | 2.22° C | 87% | 1019 hPa | - | - | - | - |
| 1777867406 | 2.22° C | 87% | 1019 hPa | - | - | - | - |
| 1777866507 | 2.22° C | 87% | 1019 hPa | - | - | - | - |
* Rain since midnight (hover to see other rain measurements)
** Current wind speed in m/s (hover to see current wind gust speed)